Location: Heppenheim
(49.6410°N, 8.6370°E)
Time: 17:14:44
(UTC+02:00)

ISS - Pass Details

Date: 09 May 2026
Orbit: 414 x 424 km, 51.6° (Epoch: 10 May)

Event Time Altitude Azimuth Distance (km) Brightness Sun altitude
Exits shadow 03:24:03 39° 151° (SSE) 645 -3.1 -17.8°
Drops below altitude 10° 03:26:24 10° 128° (SE) 1,495 -1.0 -17.6°
Sets 03:28:31 0° 124° (ESE) 2,358 0.0 -17.4°
